EW5998 Weather Reports


time (UTC)temp
F
wind
direction
speed
knots
gust
knots
rain 1hr
in
rain 24hr
in
rain mn
in
humidity
%
barometer
mb
20260505222015 55 226 10.4 20.9 0.00 0.08 0.08 59 1005.5
20260505215015 56 264 9.6 22.6 0.00 0.08 0.08 54 1004.8
20260505212015 58 246 8.7 19.1 0.00 0.08 0.08 54 1004.1
20260505205015 59 238 7.8 17.4 0.00 0.08 0.08 57 1003.6
20260505203357 59 217 7.8 13.9 0.00 0.08 0.08 63 1002.9
20260505200403 59 218 5.2 11.3 0.00 0.08 0.08 77 1002.3
20260505192015 58 244 5.2 10.4 0.01 0.08 0.08 83 1002.3
20260505185014 58 255 6.1 13.9 0.06 0.08 0.08 84 1002.2
20260505182019 61 281 9.6 20.9 0.06 0.07 0.07 79 1002.1
20260505175015 67 210 9.6 18.2 0.00 0.02 0.02 60 1001.0
20260505172015 67 251 8.7 20.9 0.00 0.02 0.02 64 1000.8
20260505165014 66 229 12.2 28.7 0.00 0.02 0.02 62 1000.8
20260505162016 67 222 12.2 23.5 0.00 0.02 0.02 61 1000.6
20260505152015 65 214 8.7 16.5 0.00 0.02 0.02 65 1000.2
20260505151829 64 179 9.6 18.2 0.00 0.02 0.02 67 1000.1
20260505125013 58 202 4.3 10.4 0.00 0.02 0.02 78 1000.0
20260505122011 57 204 4.3 11.3 0.00 0.02 0.02 78 999.8
20260505115012 57 167 2.6 14.8 0.00 0.02 0.02 79 1000.0
20260505113439 57 182 3.5 8.7 0.00 0.02 0.02 79 999.8
20260505102012 55 160 1.7 6.1 0.00 0.02 0.02 80 999.7
20260505095011 55 236 3.5 8.7 0.00 0.02 0.02 78 999.8
20260505092011 56 171 1.7 6.1 0.00 0.04 0.02 78 999.2
20260505085011 56 219 2.6 7.8 0.00 0.04 0.02 77 999.5
20260505082011 56 198 2.6 8.7 0.00 0.04 0.02 75 999.7
20260505075009 56 169 3.5 14.8 0.00 0.04 0.02 74 999.8
20260505072010 54 170 3.5 9.6 0.02 0.04 0.02 75 999.9
20260505065009 51 155 0.0 5.2 0.02 0.04 0.02 74 999.8
20260505063400 52 200 1.7 6.1 0.00 0.02 0.00 70 999.8
20260505055009 51 166 0.9 3.5 0.00 0.02 0.00 69 1000.2
20260505052009 50 155 0.0 1.7 0.00 0.06 0.00 71 1000.4
20260505032005 53 149 0.9 3.5 0.00 0.08 0.08 68 1001.1
20260505025006 54 165 1.7 3.5 0.00 0.08 0.08 66 1001.2
20260505022006 55 168 1.7 3.5 0.00 0.08 0.08 65 1001.3
20260505015005 56 205 2.6 5.2 0.00 0.08 0.08 63 1001.5
20260505012003 58 160 1.7 5.2 0.00 0.08 0.08 60 1001.5
20260505005003 59 180 2.6 7.8 0.00 0.08 0.08 59 1001.6
20260505002003 60 205 2.6 6.1 0.00 0.08 0.08 58 1001.5
20260504235003 62 173 2.6 6.1 0.00 0.08 0.08 57 1001.2
20260504232004 64 154 3.5 8.7 0.00 0.08 0.08 54 1001.1
20260504225003 65 180 4.3 19.1 0.00 0.08 0.08 49 1001.1